Location: Banff
(51.1667°N, 115.5667°W)
Time: 10:09:10
(UTC+00:00)

SR - Pass Details

Date: 29 November 2020
Orbit: 575 x 880 km, 66.7° (Epoch: 19 January)

Event Time Altitude Azimuth Distance (km) Brightness Sun altitude
Rises 02:58:31 0° 226° (SW) 2,823 ? -30.3°
Reaches altitude 10° 03:00:42 10° 230° (SW) 1,951 ? -30.6°
Enters shadow 03:02:56 30° 240° (WSW) 1,127 ? -31.0°
